TimeCST,TemperatureF,Dew PointF,Humidity,Sea Level PressureIn,VisibilityMPH,Wind Direction,Wind SpeedMPH,Gust SpeedMPH,PrecipitationIn,Events,Conditions,WindDirDegrees,DateUTC
12:10 AM,19.4,12.2,74,30.21,10.0,WSW,10.4,-,N/A,,Scattered Clouds,240,2013-01-16 06:10:00
12:50 AM,17.6,12.2,79,30.19,10.0,SW,9.2,-,N/A,,Mostly Cloudy,230,2013-01-16 06:50:00
1:30 AM,19.4,12.2,74,30.18,10.0,WSW,9.2,-,N/A,,Partly Cloudy,240,2013-01-16 07:30:00
1:50 AM,17.6,12.2,79,30.18,10.0,WSW,9.2,-,N/A,,Clear,240,2013-01-16 07:50:00
2:15 AM,17.6,12.2,79,30.18,10.0,SW,8.1,-,N/A,,Clear,230,2013-01-16 08:15:00
2:30 AM,17.6,12.2,79,30.17,10.0,WSW,9.2,-,N/A,,Clear,240,2013-01-16 08:30:00
3:10 AM,17.6,14.0,86,30.17,10.0,WSW,9.2,-,N/A,,Clear,240,2013-01-16 09:10:00
3:30 AM,15.8,14.0,93,30.16,10.0,WSW,9.2,-,N/A,,Clear,250,2013-01-16 09:30:00
3:50 AM,17.6,14.0,86,30.15,10.0,WSW,10.4,-,N/A,,Clear,250,2013-01-16 09:50:00
4:10 AM,17.6,14.0,86,30.15,10.0,WSW,10.4,-,N/A,,Clear,250,2013-01-16 10:10:00
4:30 AM,17.6,15.8,93,30.15,10.0,WSW,10.4,-,N/A,,Clear,250,2013-01-16 10:30:00
4:50 AM,17.6,14.0,86,30.14,10.0,WSW,9.2,-,N/A,,Clear,240,2013-01-16 10:50:00
5:10 AM,17.6,14.0,86,30.13,10.0,SW,9.2,-,N/A,,Clear,230,2013-01-16 11:10:00
5:30 AM,17.6,15.8,93,30.12,10.0,SW,11.5,-,N/A,,Clear,230,2013-01-16 11:30:00
5:50 AM,17.6,15.8,93,30.12,10.0,WSW,10.4,-,N/A,,Clear,250,2013-01-16 11:50:00
6:10 AM,17.6,14.0,86,30.12,9.0,SSW,8.1,-,N/A,,Clear,200,2013-01-16 12:10:00
6:30 AM,17.6,14.0,86,30.12,10.0,SSW,8.1,-,N/A,,Clear,210,2013-01-16 12:30:00
6:50 AM,17.6,15.8,93,30.12,10.0,SW,10.4,-,N/A,,Clear,230,2013-01-16 12:50:00
7:10 AM,17.6,15.8,93,30.12,10.0,West,9.2,-,N/A,,Clear,260,2013-01-16 13:10:00
7:30 AM,19.4,15.8,86,30.13,10.0,West,10.4,-,N/A,,Clear,260,2013-01-16 13:30:00
7:50 AM,19.4,15.8,86,30.12,9.0,WSW,10.4,-,N/A,,Clear,250,2013-01-16 13:50:00
8:10 AM,19.4,15.8,86,30.13,9.0,SSW,5.8,-,N/A,,Clear,210,2013-01-16 14:10:00
8:35 AM,24.8,17.6,74,30.13,9.0,West,8.1,-,N/A,,Clear,280,2013-01-16 14:35:00
8:50 AM,26.6,19.4,74,30.14,9.0,West,9.2,-,N/A,,Clear,270,2013-01-16 14:50:00
9:10 AM,28.4,19.4,69,30.15,10.0,West,9.2,-,N/A,,Clear,270,2013-01-16 15:10:00
9:50 AM,32.0,23.0,69,30.16,10.0,West,9.2,-,N/A,,Clear,260,2013-01-16 15:50:00
10:10 AM,33.8,23.0,65,30.16,10.0,West,8.1,-,N/A,,Clear,280,2013-01-16 16:10:00
10:30 AM,35.6,23.0,60,30.17,10.0,WNW,6.9,-,N/A,,Clear,300,2013-01-16 16:30:00
10:50 AM,37.4,23.0,56,30.16,10.0,WNW,6.9,-,N/A,,Clear,290,2013-01-16 16:50:00
11:10 AM,41.0,23.0,49,30.16,10.0,NW,6.9,-,N/A,,Clear,310,2013-01-16 17:10:00
11:30 AM,41.0,24.8,53,30.15,10.0,WSW,5.8,-,N/A,,Clear,250,2013-01-16 17:30:00
11:50 AM,44.6,24.8,46,30.14,10.0,WNW,5.8,-,N/A,,Partly Cloudy,300,2013-01-16 17:50:00
12:10 PM,44.6,24.8,46,30.14,10.0,NW,4.6,-,N/A,,Mostly Cloudy,310,2013-01-16 18:10:00
12:30 PM,46.4,26.6,46,30.13,10.0,NNW,8.1,-,N/A,,Overcast,330,2013-01-16 18:30:00
12:50 PM,44.6,26.6,49,30.12,10.0,NW,8.1,-,N/A,,Overcast,310,2013-01-16 18:50:00
1:10 PM,46.4,26.6,46,30.11,10.0,WNW,8.1,-,N/A,,Mostly Cloudy,300,2013-01-16 19:10:00
1:50 PM,48.2,26.6,43,30.10,10.0,West,5.8,-,N/A,,Clear,270,2013-01-16 19:50:00
2:10 PM,48.2,28.4,46,30.09,10.0,NW,5.8,-,N/A,,Clear,320,2013-01-16 20:10:00
2:50 PM,51.8,28.4,41,30.10,10.0,West,5.8,-,N/A,,Clear,280,2013-01-16 20:50:00
3:30 PM,53.6,28.4,38,30.09,10.0,North,13.8,18.4,N/A,,Clear,360,2013-01-16 21:30:00
3:50 PM,55.4,28.4,36,30.09,10.0,North,12.7,-,N/A,,Clear,350,2013-01-16 21:50:00
4:10 PM,53.6,28.4,38,30.10,10.0,North,12.7,-,N/A,,Clear,360,2013-01-16 22:10:00
4:50 PM,53.6,28.4,38,30.12,10.0,North,10.4,-,N/A,,Clear,350,2013-01-16 22:50:00
5:30 PM,48.2,28.4,46,30.13,10.0,North,3.5,-,N/A,,Clear,350,2013-01-16 23:30:00
5:50 PM,46.4,28.4,50,30.13,10.0,Calm,Calm,-,N/A,,Clear,0,2013-01-16 23:50:00
6:10 PM,48.2,28.4,46,30.14,10.0,Calm,Calm,-,N/A,,Clear,0,2013-01-17 00:10:00
6:30 PM,46.4,28.4,50,30.14,10.0,Calm,Calm,-,N/A,,Clear,0,2013-01-17 00:30:00
6:50 PM,44.6,28.4,53,30.15,10.0,WNW,4.6,-,N/A,,Clear,300,2013-01-17 00:50:00
7:10 PM,41.0,28.4,61,30.16,10.0,West,5.8,-,N/A,,Clear,280,2013-01-17 01:10:00
7:30 PM,35.6,26.6,70,30.16,10.0,WNW,8.1,-,N/A,,Clear,300,2013-01-17 01:30:00
7:50 PM,39.2,26.6,61,30.17,10.0,NW,9.2,-,N/A,,Clear,310,2013-01-17 01:50:00
8:10 PM,37.4,28.4,70,30.18,10.0,NW,9.2,-,N/A,,Clear,310,2013-01-17 02:10:00
8:30 PM,37.4,26.6,65,30.18,10.0,NW,10.4,-,N/A,,Clear,320,2013-01-17 02:30:00
8:50 PM,37.4,28.4,70,30.19,10.0,NW,9.2,-,N/A,,Clear,320,2013-01-17 02:50:00
9:10 PM,39.2,28.4,65,30.19,10.0,NNW,11.5,-,N/A,,Clear,330,2013-01-17 03:10:00
9:30 PM,37.4,26.6,65,30.20,10.0,NNW,11.5,-,N/A,,Clear,330,2013-01-17 03:30:00
9:50 PM,39.2,26.6,61,30.21,10.0,NNW,12.7,-,N/A,,Clear,330,2013-01-17 03:50:00
10:10 PM,39.2,26.6,61,30.22,10.0,NNW,10.4,-,N/A,,Clear,340,2013-01-17 04:10:00
10:30 PM,39.2,26.6,61,30.23,10.0,NNW,11.5,-,N/A,,Clear,340,2013-01-17 04:30:00
10:50 PM,37.4,26.6,65,30.24,10.0,NNW,9.2,-,N/A,,Clear,340,2013-01-17 04:50:00
11:10 PM,37.4,26.6,65,30.24,10.0,NNW,11.5,-,N/A,,Clear,340,2013-01-17 05:10:00
11:30 PM,37.4,26.6,65,30.25,10.0,NNW,15.0,-,N/A,,Clear,340,2013-01-17 05:30:00
11:55 PM,37.4,26.6,65,30.26,10.0,North,13.8,-,N/A,,Clear,350,2013-01-17 05:55:00